Weather History for Howell, MI

Change the Weather History Date:

Thursday, September 12, 2013

  Actual Average Record
Temperature  
Mean Temperature 66 °F -  
Max Temperature 77 °F 75 °F 89 °F (1999)
Min Temperature 55 °F 53 °F 44 °F (2007)
Cooling Degree Days 2    
Growing Degree Days 16 (Base 50)    
Moisture  
Dew Point 59 °F    
Average Humidity 77    
Maximum Humidity 99    
Minimum Humidity 40    
Precipitation  
Precipitation 0.00 in - - ()
Sea Level Pressure  
Sea Level Pressure 29.94 in    
Wind  
Wind Speed 6 mph (WNW)    
Max Wind Speed 20 mph    
Max Gust Speed 29 mph    
Visibility 9 miles    
Events Rain    
Averages and records for this station are not official NWS values.
T = Trace of Precipitation, MM = Missing Value Source: NWS Daily Summary

Daily Weather History Graph

Daily Weather History Graph

Search for Another Location

Airport:

Trip Planner

Search our weather history database for the weather conditions in past years. The results will help you decide how hot, cold, wet, or windy it might be!

Date:

Astronomy

Sep. 12, 2013 Rise Set
Actual Time 7:12 AM EDT 7:50 PM EDT
Civil Twilight 6:44 AM EDT 8:18 PM EDT
Nautical Twilight 6:10 AM EDT 8:52 PM EDT
Astronomical Twilight 5:35 AM EDT 9:27 PM EDT
Moon 2:48 PM EDT (9/12) No Moon Set
Length of Visible Light 13h 34m
Length of Day
12h 37m
Waxing Crescent, 50% of the Moon is Illuminated
Sep 12
Waxing Crescent
Sep 12
First Quarter
Sep 19
Full
Sep 26
Last Quarter
Oct 4
New

Hourly Weather History & Observations

Time (EDT) Temp. Dew Point Humidity Pressure Visibility Wind Dir Wind Speed Gust Speed Precip Events Conditions
12:14 AM 69.6 °F 65.7 °F 87% 29.97 in 10.0 mi SW 3.5 mph - N/A   Scattered Clouds
12:34 AM 69.4 °F 66.2 °F 89% 29.96 in 10.0 mi WSW 4.6 mph - N/A   Scattered Clouds
12:55 AM 68.9 °F 66.2 °F 91% 29.96 in 10.0 mi WSW 3.5 mph - N/A   Clear
1:14 AM 68.9 °F 66.4 °F 92% 29.95 in 10.0 mi WSW 4.6 mph - N/A   Scattered Clouds
1:34 AM 68.5 °F 66.4 °F 93% 29.95 in 10.0 mi WSW 4.6 mph - N/A   Scattered Clouds
1:55 AM 68.4 °F 66.4 °F 93% 29.95 in 10.0 mi WSW 4.6 mph - N/A   Scattered Clouds
2:14 AM 68.4 °F 66.4 °F 93% 29.95 in 10.0 mi WSW 4.6 mph - N/A   Overcast
2:34 AM 68.5 °F 66.4 °F 93% 29.95 in 10.0 mi WSW 5.8 mph - N/A   Mostly Cloudy
2:55 AM 68.4 °F 66.2 °F 93% 29.94 in 10.0 mi WSW 5.8 mph - N/A   Scattered Clouds
3:14 AM 68.7 °F 66.2 °F 92% 29.94 in 10.0 mi West 5.8 mph - N/A Rain Light Rain
3:34 AM 68.4 °F 66.2 °F 93% 29.93 in 10.0 mi WSW 5.8 mph - N/A   Mostly Cloudy
3:55 AM 67.1 °F 65.7 °F 95% 29.93 in 10.0 mi WSW 4.6 mph - N/A   Clear
4:14 AM 66.9 °F 65.7 °F 96% 29.92 in 10.0 mi WSW 6.9 mph - N/A   Clear
4:34 AM 66.7 °F 65.5 °F 96% 29.92 in 10.0 mi WSW 5.8 mph - N/A   Clear
4:49 AM 66.4 °F 65.3 °F 96% 29.92 in 10.0 mi WSW 4.6 mph - N/A   Clear
5:14 AM 65.8 °F 64.9 °F 97% 29.93 in 10.0 mi WSW 3.5 mph - N/A   Clear
5:35 AM 65.7 °F 64.8 °F 97% 29.93 in 10.0 mi SW 3.5 mph - N/A   Clear
5:55 AM 65.5 °F 64.6 °F 97% 29.92 in 10.0 mi WSW 3.5 mph - N/A   Clear
6:14 AM 65.3 °F 64.6 °F 98% 29.92 in 7.0 mi WSW 4.6 mph - N/A   Clear
6:35 AM 65.3 °F 64.9 °F 99% 29.93 in 7.0 mi WSW 4.6 mph - N/A   Clear
6:55 AM 65.7 °F 65.3 °F 99% 29.92 in 7.0 mi WSW 5.8 mph - N/A   Clear
7:14 AM 65.3 °F 64.9 °F 99% 29.92 in 5.0 mi WSW 4.6 mph - N/A   Clear
7:35 AM 66.4 °F 66.2 °F 99% 29.94 in 5.0 mi WNW 6.9 mph - N/A   Mostly Cloudy
7:54 AM 67.5 °F 67.1 °F 99% 29.94 in 4.0 mi WNW 5.8 mph - N/A   Overcast
8:14 AM 67.5 °F 66.7 °F 98% 29.94 in 4.0 mi WNW 5.8 mph - N/A   Overcast
8:35 AM 67.3 °F 66.4 °F 97% 29.94 in 5.0 mi NW 5.8 mph - N/A   Overcast
8:54 AM 67.1 °F 65.5 °F 95% 29.94 in 10.0 mi NNW 5.8 mph - N/A   Overcast
9:14 AM 67.3 °F 64.2 °F 90% 29.94 in 10.0 mi NNW 6.9 mph - N/A   Mostly Cloudy
9:35 AM 67.1 °F 62.6 °F 85% 29.95 in 10.0 mi NNW 6.9 mph - N/A   Scattered Clouds
9:54 AM 67.1 °F 62.4 °F 85% 29.95 in 10.0 mi NNW 5.8 mph - N/A   Clear
10:14 AM 67.6 °F 61.9 °F 82% 29.95 in 10.0 mi NNW 8.1 mph - N/A   Clear
10:35 AM 69.6 °F 60.4 °F 73% 29.95 in 10.0 mi NNW 9.2 mph - N/A   Clear
10:54 AM 70.0 °F 59.2 °F 68% 29.95 in 10.0 mi NW 6.9 mph - N/A   Clear
11:14 AM 70.5 °F 57.9 °F 64% 29.95 in 10.0 mi NNW 8.1 mph - N/A   Clear
11:35 AM 71.1 °F 57.6 °F 62% 29.95 in 10.0 mi NNW 9.2 mph - N/A   Clear
11:54 AM 72.9 °F 56.3 °F 56% 29.95 in 10.0 mi WNW 8.1 mph - N/A   Clear
12:14 PM 73.6 °F 57.2 °F 56% 29.94 in 10.0 mi WNW 8.1 mph - N/A   Clear
12:35 PM 74.7 °F 56.7 °F 53% 29.95 in 10.0 mi WNW 9.2 mph - N/A   Clear
12:54 PM 74.8 °F 56.1 °F 52% 29.94 in 10.0 mi WNW 6.9 mph - N/A   Clear
1:14 PM 75.7 °F 51.6 °F 43% 29.94 in 10.0 mi WNW 10.4 mph - N/A   Clear
1:35 PM 75.4 °F 50.7 °F 42% 29.94 in 10.0 mi NW 8.1 mph - N/A   Mostly Cloudy
1:54 PM 76.3 °F 50.2 °F 40% 29.93 in 10.0 mi West 9.2 mph - N/A   Scattered Clouds
2:14 PM 76.3 °F 50.5 °F 40% 29.92 in 10.0 mi NNW 6.9 mph - N/A   Clear
2:35 PM 77.9 °F 51.4 °F 40% 29.92 in 10.0 mi NNW 6.9 mph - N/A   Clear
2:54 PM 77.4 °F 51.3 °F 40% 29.91 in 10.0 mi NNW 9.2 mph - N/A   Scattered Clouds
3:14 PM 75.6 °F 51.3 °F 42% 29.91 in 10.0 mi NNW 6.9 mph - N/A   Mostly Cloudy
3:35 PM 74.5 °F 51.6 °F 45% 29.91 in 10.0 mi NNW 6.9 mph - N/A   Overcast
3:54 PM 73.8 °F 51.8 °F 46% 29.90 in 10.0 mi NNW 6.9 mph - N/A   Overcast
4:14 PM 73.8 °F 52.7 °F 48% 29.89 in 10.0 mi NNW 4.6 mph - N/A   Mostly Cloudy
4:35 PM 74.7 °F 53.2 °F 47% 29.88 in 10.0 mi Calm Calm - N/A   Mostly Cloudy
4:54 PM 75.7 °F 52.7 °F 45% 29.88 in 10.0 mi NW 10.4 mph - N/A   Mostly Cloudy
5:14 PM 75.7 °F 53.6 °F 46% 29.88 in 10.0 mi WNW 10.4 mph - N/A   Mostly Cloudy
5:35 PM 69.3 °F 50.5 °F 51% 29.90 in 10.0 mi NW 19.6 mph 28.8 mph N/A   Overcast
5:54 PM 62.6 °F 58.1 °F 85% 29.92 in 3.0 mi NW 12.7 mph 21.9 mph N/A Rain Rain
6:15 PM 62.1 °F 59.4 °F 91% 29.93 in 10.0 mi NNW 10.4 mph - N/A   Overcast
6:35 PM 62.4 °F 59.5 °F 90% 29.91 in 10.0 mi NNW 4.6 mph - N/A   Mostly Cloudy
6:54 PM 61.9 °F 58.1 °F 87% 29.92 in 10.0 mi NNW 6.9 mph - N/A   Mostly Cloudy
7:15 PM 61.7 °F 59.0 °F 91% 29.93 in 10.0 mi WNW 5.8 mph - N/A   Overcast
7:35 PM 61.9 °F 59.0 °F 90% 29.94 in 10.0 mi NW 8.1 mph - N/A   Overcast
7:54 PM 62.1 °F 58.1 °F 87% 29.95 in 10.0 mi NNW 6.9 mph - N/A   Overcast
8:15 PM 61.7 °F 55.8 °F 81% 29.95 in 10.0 mi North 4.6 mph - N/A   Mostly Cloudy
8:35 PM 61.0 °F 53.8 °F 77% 29.95 in 10.0 mi North 6.9 mph - N/A   Mostly Cloudy
8:54 PM 60.1 °F 52.3 °F 76% 29.96 in 10.0 mi NNW 6.9 mph - N/A   Scattered Clouds
9:15 PM 59.0 °F 52.0 °F 78% 29.97 in 10.0 mi NNW 8.1 mph - N/A   Clear
9:34 PM 59.0 °F 49.5 °F 71% 29.97 in 10.0 mi NNW 9.2 mph 17.3 mph N/A   Clear
9:54 PM 58.6 °F 48.4 °F 69% 29.98 in 10.0 mi NNW 11.5 mph 17.3 mph N/A   Clear
10:15 PM 58.3 °F 47.5 °F 67% 29.97 in 10.0 mi North 9.2 mph 18.4 mph N/A   Clear
10:34 PM 57.7 °F 47.8 °F 70% 29.98 in 10.0 mi NNW 5.8 mph 16.1 mph N/A   Clear
10:54 PM 56.7 °F 48.2 °F 73% 29.98 in 10.0 mi NNW 6.9 mph - N/A   Clear
11:15 PM 56.5 °F 48.2 °F 74% 29.98 in 10.0 mi NW 8.1 mph - N/A   Clear
11:34 PM 56.3 °F 47.5 °F 72% 29.98 in 10.0 mi NNW 5.8 mph - N/A   Scattered Clouds
11:54 PM 55.8 °F 47.3 °F 73% 29.99 in 10.0 mi NW 5.8 mph - N/A   Scattered Clouds